Regional Weather Roundup
Issued by NWS

Home | Current Version | Previous Version | Text Only | Print | Product List | Glossary On
Versions: 1 2 3 4 5 6 7 8 9 10 11 12 13 14 15 16 17 18 19 20 21 22 23 24 25 26 27 28 29 30 31 32 33 34 35 36 37 38 39 40 41 42 43 44 45 46 47 48 49
000
ASUS42 KFFC 281903
RWRGA
WEATHER ROUNDUP FOR GEORGIA
NATIONAL WEATHER SERVICE PEACHTREE CITY GA
300 PM EDT MON JUL 28 2014

NOTE: "FAIR" INDICATES FEW OR NO CLOUDS BELOW 12,000 FEET WITH NO
SIGNIFICANT WEATHER AND/OR OBSTRUCTIONS TO VISIBILITY.

* = USE WITH CAUTION. THE STATIONS MARKED WITH AN ASTERISK MAY NOT
REPORT WEATHER SUCH AS PRECIPITATION, FOG, OR THUNDER AND ARE NOT
QUALITY CONTROLLED BY NWS.

THE REMARK "TC" DENOTES TEMPERATURE READING IN DEGREES CELSIUS.

GAZ001>058-282000-
NORTH GEORGIA

CITY           SKY/WX    TMP DP  RH WIND       PRES   REMARKS
ATLANTA        MOSUNNY   89  64  43 NW18G26   29.93F HX  90
ATHENS         SUNNY     91  61  36 NW13G21   29.90S HX  91
CHAMBLEE       PTSUNNY   89  64  43 W15       29.93F HX  90
PEACHTREE CITY MOSUNNY   92  65  40 NW17G25   29.93F HX  94
ROME           MOSUNNY   88  62  41 W10       29.93F
WEST ATLANTA   MOSUNNY   89  64  43 NW14G21   29.92F HX  90
GAINESVILLE    MOSUNNY   86  60  41 W18G25    29.95S
CARTERSVILLE   MOSUNNY   90  61  37 VRB7      29.94F HX  90


CITY           SKY/WX    TMP DP  RH WIND       PRES   REMARKS
DALTON*        MOSUNNY   82  63  51 N9        29.95S
LAWRENCEVILLE* MOSUNNY   88  63  42 W10G23    29.93S
MARIETTA       MOSUNNY   88  67  49 W18       29.93F HX  90
$$

GAZ059>098-102>109-282000-
CENTRAL GEORGIA

CITY           SKY/WX    TMP DP  RH WIND       PRES   REMARKS
AUGUSTA-BUSH   MOSUNNY   94  72  48 W13G23    29.82F HX 102
AUGUSTA-DANIEL SUNNY     95  72  47 W12G21    29.85F HX 103
COLUMBUS       PTSUNNY   91  75  59 W12       29.91F THUNDER HX 101
MACON          MOSUNNY   91  76  61 W12       29.89F HX 103
ROBINS AFB     PTSUNNY   93  78  61 W12       29.89F HX 108


CITY           SKY/WX    TMP DP  RH WIND       PRES   REMARKS
LAGRANGE*      MOSUNNY   95  78  56 W9        29.93F HX 111
SYLVANIA*      MOSUNNY   93  81  67 W10G16    29.87F THUNDER HX 112
MILLEDGEVILLE* MOSUNNY   79  61  53 W3        29.87F
$$

GAZ099>101-110>166-282000-
SOUTH GEORGIA

CITY           SKY/WX    TMP DP  RH WIND       PRES   REMARKS
SAVANNAH       PTSUNNY   97  71  42 W12G22    29.86F HX 104
VALDOSTA       MOSUNNY   99  74  44 VRB3      29.94F HX 110
ST SIMONS      MOSUNNY   96  72  45 W13G22    29.89F HX 104
FT STEWART     MOSUNNY   98  70  39 W15G22    29.86F HX 105
ALBANY         MOSUNNY   95  72  47 W15G22    29.94F HX 103
HUNTER AFB     PTSUNNY   96  74  49 W16G23    29.84F HX 107
MOODY AFB      MOSUNNY   96  85  69 W14       29.93F HX 126
BRUNSWICK      MOSUNNY   97  70  41 W18       29.90F HX 103


CITY           SKY/WX    TMP DP  RH WIND       PRES   REMARKS
BAINBRIDGE*    MOSUNNY   99  77  49 W8G22     29.95F HX 114
MOULTRIE*      MOSUNNY   95  70  43 W13G22    29.95F HX 101
VIDALIA*         N/A     95  75  52 W14       29.89F HX 107
WAYCROSS*      MOSUNNY  101  75  43 W18       29.90F HX 115
DOUGLAS*       PTSUNNY   97  70  41 W18G24    29.92F HX 103
$$


USA.gov is the U.S. government's official web portal to all federal, state and local government web resources and services.